This is the latest recevied weather packets stored in our database for station/object WX5HOT. If no packets are shown the sender has not sent any weather packets the latest 10 day(s).
| Time | Temp. | Humidity | Pressure | Rain* | Wind** | Luminosity | Snow |
|---|---|---|---|---|---|---|---|
| 1777568848 | 13.33° C | 68% | 1067.1 hPa | 0 mm | - | 436 W/m² | - |
| 1777568546 | 13.33° C | 68% | 1067.3 hPa | 0 mm | - | 454 W/m² | - |
| 1777568242 | 13.33° C | 69% | 1067.4 hPa | 0 mm | - | 345 W/m² | - |
| 1777567939 | 13.33° C | 68% | 1067.1 hPa | 0 mm | - | 347 W/m² | - |
| 1777567635 | 13.89° C | 70% | 1067.3 hPa | 0 mm | - | 435 W/m² | - |
| 1777567333 | 13.89° C | 69% | 1067.4 hPa | 0 mm | - | 366 W/m² | - |
| 1777567031 | 13.33° C | 69% | 1067.6 hPa | 0 mm | - | 453 W/m² | - |
| 1777566729 | 13.33° C | 69% | 1067.5 hPa | 0 mm | - | 439 W/m² | - |
| 1777566426 | 13.33° C | 69% | 1067.4 hPa | 0 mm | - | 400 W/m² | - |
| 1777566123 | 13.33° C | 71% | 1067.3 hPa | 0 mm | - | 396 W/m² | - |
| 1777565818 | 13.33° C | 68% | 1067.3 hPa | 0 mm | - | 423 W/m² | - |
| 1777565515 | 13.33° C | 69% | 1067.4 hPa | 0 mm | - | 447 W/m² | - |
| 1777565211 | 13.33° C | 69% | 1067.2 hPa | 0 mm | - | 452 W/m² | - |
| 1777564908 | 13.33° C | 69% | 1067 hPa | 0 mm | - | 374 W/m² | - |
| 1777564602 | 12.78° C | 73% | 1067.2 hPa | 0 mm | - | 340 W/m² | - |
| 1777564298 | 12.78° C | 71% | 1067.1 hPa | 0 mm | - | 359 W/m² | - |
| 1777563995 | 12.78° C | 69% | 1067 hPa | 0 mm | - | 370 W/m² | - |
| 1777563691 | 12.78° C | 70% | 1067 hPa | 0 mm | - | 372 W/m² | - |
| 1777563387 | 12.78° C | 69% | 1067 hPa | 0 mm | - | 368 W/m² | - |
| 1777563082 | 12.78° C | 70% | 1067 hPa | 0 mm | - | 380 W/m² | - |
| 1777562778 | 12.78° C | 70% | 1066.8 hPa | 0 mm | - | 337 W/m² | - |
| 1777562476 | 12.78° C | 69% | 1066.9 hPa | 0 mm | - | 507 W/m² | - |
| 1777562173 | 12.22° C | 70% | 1066.9 hPa | 0 mm | - | 532 W/m² | - |
| 1777561871 | 12.22° C | 71% | 1066.8 hPa | 0 mm | - | 428 W/m² | - |
| 1777561568 | 12.22° C | 70% | 1067 hPa | 0 mm | - | 455 W/m² | - |
* Rain latest hour (hover to see other rain measurements)
** Current wind speed in m/s (hover to see current wind gust speed)